Regional Weather Roundup
Issued by NWS

Home | Current Version | Previous Version | Text Only | Print | Product List | Glossary Off
Versions: 1 2 3 4 5 6 7 8 9 10 11 12 13 14 15 16 17 18 19 20 21 22 23 24 25 26 27

000
ASUS45 KBOU 260007
RWRCO

WEATHER ROUNDUP FOR COLORADO
NATIONAL WEATHER SERVICE DENVER/BOULDER CO
600 PM MDT WED MAY 25 2016

NOTE: "FAIR" INDICATES FEW OR NO CLOUDS BELOW 12000 FEET WITH NO
SIGNIFICANT WEATHER AND/OR OBSTRUCTIONS TO VISIBILITY.

COZ001>005-013-030-031-260100-
...NORTHWEST COLORADO...

CITY           SKY/WX    TMP DP  RH WIND       PRES   REMARKS
CRAIG          FAIR      63  27  25 W13       30.01S
HAYDEN         FAIR      61  27  27 W9        30.02S
MEEKER         FAIR      67  12  12 W16       30.01
MOUNT WERNER   NOT AVBL
STEAMBOAT SPGS FAIR      62  21  20 W13G24    30.02S
WALDEN         FAIR      55  18  22 SW16G25   30.10R
$$

COZ006>008-011-260100-
...WEST CENTRAL VALLEYS...

CITY           SKY/WX    TMP DP  RH WIND       PRES   REMARKS
GRAND JUNCTION FAIR      72  17  12 VRB5      29.95S
MONTROSE       FAIR      72   9   8 SW13G23   30.01R
EAGLE          SUNNY     66  18  15 W9G16     30.05R
RIFLE          FAIR      72  21  14 W13G24    29.97S
DELTA          FAIR      77   8   7 SW12G18   29.97S
NUCLA          FAIR      70   9   9 W8G24     30.05F
$$

COZ017>023-064>068-260100-
...SOUTHWEST COLORADO...

CITY           SKY/WX    TMP DP  RH WIND       PRES   REMARKS
DURANGO        FAIR      67  11  11 W7        30.06F
CORTEZ         FAIR      72  14  11 S7        30.00F
PAGOSA SPRINGS FAIR      65   0   7 SW13G18   30.12F
TELLURIDE      CLOUDY    57   4  12 SW12G23   30.18F
WOLF CREEK PAS FAIR      37   7  28 SW24G35   30.35S
$$

COZ009-010-012-014-032>034-037-058>063-260100-
...CENTRAL COLORADO...

CITY           SKY/WX    TMP DP  RH WIND       PRES   REMARKS
ASPEN          FAIR      62  11  13 SW12      30.09S
BUENA VISTA    FAIR      65   2   8 SW12G22   30.07S
COPPER MTN     NOT AVBL
BERTHOUD PASS  FAIR      36  28  75 W22       30.31S
COTTONWOOD PAS FAIR      59 -15   4 W7G26     30.18S
GUNNISON       FAIR      61   9  12 NW9G17    30.11F
KREMMLING      FAIR      61   5  11 SW14G22   30.07R
LEADVILLE      FAIR      51  -6   9 W10G18    30.19R
MONARCH PASS   FAIR      43  10  26 W21G38    30.40R
SALIDA         FAIR      70   6   8 W17G24    30.11S
SUNLIGHT       CLOUDY    46  21  36 CALM      30.27S
WILKERSON PASS PTSUNNY   46   5  18 S5        30.28S
$$

COZ069>075-260100-
...SAN LUIS VALLEY/SANGRE DE CRISTO MOUNTAINS...

CITY           SKY/WX    TMP DP  RH WIND       PRES   REMARKS
ALAMOSA        FAIR      68   5   8 W15G21    30.08S
LA VETA PASS   FAIR      54   7  15 S14G24    30.23S
SAGUACHE       FAIR      66   5   9 W20G25    30.08S
$$

COZ035-036-038>040-260100-
...NORTHERN COLORADO FRONT RANGE...

CITY           SKY/WX    TMP DP  RH WIND       PRES   REMARKS
DENVER INTL AP PTSUNNY   71  42  35 E13       29.93S
DMNS CITY PARK   N/A     71  38  31 E6G16     29.92S
AURORA         PTSUNNY   67  41  38 NE7       29.94S
FRONT RANGE AP PTSUNNY   70  39  32 NE14G20   29.94R
ERIE MUNI ARPT FAIR      67  44  42 NE5       29.92S
BOULDER MUN AP FAIR      68  41  37 CALM      29.93S
CENTENNIAL     PTSUNNY   69  34  27 NE7       29.94S
BROOMFIELD     PTSUNNY   68  43  40 NE9       29.95R
FORT COLLINS   FAIR      70  39  32 S8        29.92S
LONGMONT       FAIR      73  38  28 SE7       29.94S
$$

COZ041-046-047-076>085-087-088-260100-
...PIKES PEAK/PALMER DIVIDE AND SOUTHERN FOOTHILLS...

CITY           SKY/WX    TMP DP  RH WIND       PRES   REMARKS
COLO. SPRINGS  FAIR      72  16  12 S15       29.96S
A. F. ACADEMY  PTSUNNY   73  10   9 W12G21    29.96S
SCHRIEVER AFB  NOT AVBL
ELLICOTT       FAIR     N/A N/A N/A S15       29.95S
FALCON         FAIR      69  16  13 S15G22    30.01S
FORT CARSON    FAIR      75  16  10 SE10      29.92S
LIMON          FAIR      70  39  32 NE7       29.93F
MONUMENT HILL  FAIR      63  19  19 W12G20    30.01S
TRINIDAD       FAIR      79  12   8 E5        29.94S
$$

COZ042>045-048>051-090-091-260100-
...NORTHEAST COLORADO...

CITY           SKY/WX    TMP DP  RH WIND       PRES   REMARKS
GREELEY ARPT   FAIR      73  37  27 SE5       29.91S
AKRON          PTSUNNY   62  43  49 NE10      29.95R
BURLINGTON     FAIR      79  36  21 S12       29.90F
WRAY           FAIR      66  52  59 E3        29.91S
STERLING       FAIR      66  45  45 NE10G16   29.91F
HOLYOKE        FAIR      63  46  55 N25       29.92F
FORT MORGAN    FAIR      68  40  36 NE17      29.93R
$$

COZ086-089-092>099-260100-
...SOUTHEAST COLORADO...

CITY           SKY/WX    TMP DP  RH WIND       PRES   REMARKS
PUEBLO         FAIR      83  19   9 SE9       29.85F
LA JUNTA       FAIR      83  21  10 E18       29.85F
LAMAR          FAIR      84  33  16 NE8       29.83F
SPRINGFIELD      N/A     81  24  12 SE13G20   29.89F
$$




USA.gov is the U.S. government's official web portal to all federal, state and local government web resources and services.